Regional Weather Roundup
Issued by NWS

Current Version | Previous Version | Text Only | Print | Product List | Glossary On
Versions: 1 2 3 4 5 6 7 8 9 10 11 12 13 14 15 16 17 18 19 20 21 22 23 24 25 26 27 28 29 30 31 32 33 34 35 36 37 38 39 40 41 42 43 44 45 46 47 48 49 50
000
ASCA44 KEWX 071720
RWRMX

LATIN AMERICA AND CARIBBEAN REGIONAL WEATHER ROUNDUP
NATIONAL WEATHER SERVICE AUSTIN/SAN ANTONIO TX
1200 PM CDT TUE JUL 07 2015

NOTE: "FAIR" INDICATED FEW OR NO CLOUDS BELOW 12,000 FEET WITH NO
SIGNIFICANT WEATHER AND/OR OBSTRUCTIONS TO VISIBILITY.

BAJA CALIFORNIA

CITY           SKY/WX    TMP DP  RH WIND       PRES   REMARKS
LORETO         MOSUNNY   90  63  40 CALM      29.84F HX  90
LA PAZ         MOSUNNY   82  54  36 S7        29.93F
MEXICALI       SUNNY     93  61  33 SE3       29.82F HX  93
S.J. DEL CABO  MOSUNNY   95  55  26 CALM      29.90F HX  93
TIJUANA        CLOUDY    64  59  82 W3        30.02F FOG

NORTHWESTERN MEXICO

CITY           SKY/WX    TMP DP  RH WIND       PRES   REMARKS
CULIACAN       PTSUNNY   93  72  49 CALM      29.90F HX 100
DURANGO        MOSUNNY   72  61  68 E3        30.27F
GUAYMAS        SUNNY     93  75  55 CALM      29.82F HX 104
HERMOSILLO     SUNNY     95  68  41 CALM      29.92F HX  99
CD. JUAREZ     MOSUNNY   84  57  39 E12       30.06S
LOS MOCHIS     MOSUNNY   91  70  49 W6        29.89S HX  97
OBREGON        MOSUNNY   93  68  43 CALM      29.84F HX  97

NORTHEASTERN MEXICO

CITY           SKY/WX    TMP DP  RH WIND       PRES   REMARKS
CHIHUAHUA      PTSUNNY   88  55  33 N12G20    30.12F
MATAMOROS      CLOUDY    88  77  70 SE21      30.01S HX 100
MONCLOVA         N/A    N/A N/A N/A MISG        N/A
MONTERREY      CLOUDY    79  70  73 E7        29.97F
NUEVO LAREDO   CLOUDY    88  70  55 S14       29.95S HX  92
PIEDRAS NEGRAS PTSUNNY   84  75  74 SE7       29.99R HX  92
REYNOSA        PTSUNNY   88  70  55 E9        29.96F HX  92
SALTILLO       PTSUNNY   81  68  65 S9        30.20S
TORREON        PTSUNNY   86  64  48 CALM      30.10S
CD. VICTORIA   CLOUDY    86  64  48 SW12G24   30.00F

WESTERN MEXICO

CITY           SKY/WX    TMP DP  RH WIND       PRES   REMARKS
AGUASCALIENTES CLOUDY    66  54  63 S6        30.33F
COLIMA         MOSUNNY   84  72  65 CALM      30.03F
DEL BAJIO      MOSUNNY   70  59  68 S6        30.36F
GUADALAJARA    MOSUNNY   73  61  64 E5        30.22F
MANZANILLO       N/A    N/A N/A N/A MISG        N/A
MAZATLAN       PTSUNNY   88  70  55 SW7       29.87F HX  92
P. VALLARTA    SUNNY     88  77  70 SW5       29.88F HX 100
URUAPAN        PTSUNNY   73  63  68 CALM      30.22F
ZACATECAS      CLOUDY    70  57  64 CALM      30.33S

CENTRAL MEXICO

CITY           SKY/WX    TMP DP  RH WIND       PRES   REMARKS
CUERNAVACA     PTSUNNY   77  59  53 CALM      30.21F
MEXICO CITY    SUNNY     68  50  52 NE6       30.38F
MORELIA        MOSUNNY   72  59  64 CALM      30.30F
POZA RICA      MOSUNNY   88  73  62 SE6       30.04R HX  96
PUEBLA         MOSUNNY   70  52  52 E3        30.38F
QUERETARO      MOSUNNY   70  57  64 SE3       30.37F
S. LUIS POTOSI PTSUNNY   70  54  56 CALM      30.30F
TAMPICO        MOSUNNY   86  75  70 SE16      30.01S HX  95
TOLUCA         MOSUNNY   59  54  82 E8        30.46S FOG

SOUTHERN MEXICO

CITY           SKY/WX    TMP DP  RH WIND       PRES   REMARKS
ACAPULCO       MOSUNNY   90  75  62 SW7       29.92R HX 100
B. DE HUATULCO PTSUNNY   88  77  70 CALM      30.02R HX 100
OAXACA         PTSUNNY   75  54  46 SE5       30.27F
P. ESCONDIDO   PTSUNNY   86  73  66 CALM      30.05S HX  93
VERACRUZ       PTSUNNY   88  75  66 E8        30.03S HX  97
ZIHUATANEJO    MOSUNNY   91  75  59 W12       29.92S HX 102

YUCATAN PENINSULA

CITY           SKY/WX    TMP DP  RH WIND       PRES   REMARKS
CAMPECHE       MOSUNNY   91  70  49 E18       30.03F HX  97
CANCUN         PTSUNNY   88  79  74 N12       30.11R HX 102
CHETUMAL       PTSUNNY   88  77  70 NE7       30.07S HX 100
CD. DEL CARMEN SUNNY     88  73  62 E12       30.03S HX  96
COZUMEL        PTSUNNY   82  79  89 NE10      30.10S HX  93
MERIDA         MOSUNNY   90  73  58 E9        30.09S HX  98
MINATITLAN     MOSUNNY   84  68  58 N12       29.95F
TAPACHULA      PTSUNNY   88  75  66 CALM      29.95F HX  97
TUX. GUTIERREZ CLOUDY    77  68  73 CALM      30.06F
VILLAHERMOSA   SUNNY     91  70  49 E20       30.01F HX  97

CENTRAL AMERICA

CITY           SKY/WX    TMP DP  RH WIND       PRES   REMARKS
BELIZE CITY    MOSUNNY   88  79  74 E10       30.06S HX 102
MANAGUA        MOSUNNY   88  72  58 NE14      29.89S HX  94

CARIBBEAN

CITY           SKY/WX    TMP DP  RH WIND       PRES   REMARKS
ARUBA          MOSUNNY   79  77  94 E17       29.94S
CURACAO        MOSUNNY   88  75  66 E16       29.97S HX  97
KINGSTON       MOSUNNY   88  75  66 SE25      30.00S HX  97
NASSAU         MOSUNNY   90  72  55 SE7       30.19S HX  96
SAN JUAN       MOSUNNY   88  75  66 NE16      30.07S HX  97
SANTO DOMINGO  MOSUNNY   90  73  58 S9        30.03S HX  98
ST. CROIX      MOSUNNY   86  70  58 E18G32    30.06S HX  90
ST. KITTS      PTSUNNY   86  77  74 NE14      30.06F HX  97
ST. MAARTEN    MOSUNNY   86  72  62 E18       30.06S HX  92
ST. THOMAS     MOSUNNY   93  68  43 E16G25    30.06  HX  97

$$



USA.gov is the U.S. government's official web portal to all federal, state and local government web resources and services.